This is the latest recevied weather packets stored in our database for station/object KO4ZGL-13. If no packets are shown the sender has not sent any weather packets the latest 10 day(s).
| Time | Temp. | Humidity | Pressure | Rain* | Wind** | Luminosity | Snow |
|---|---|---|---|---|---|---|---|
| 1787861441 | 30° C | 82% | 1014.2 hPa | 0 mm | - | 362 W/m² | - |
| 1787861136 | 30° C | 82% | 1014.4 hPa | 0 mm | - | 423 W/m² | - |
| 1787860834 | 30° C | 82% | 1014 hPa | 0 mm | - | 308 W/m² | - |
| 1787860529 | 30° C | 81% | 1014.4 hPa | 0 mm | - | 212 W/m² | - |
| 1787860225 | 30° C | 80% | 1014.4 hPa | 0 mm | - | 217 W/m² | - |
| 1787859920 | 30° C | 80% | 1014.2 hPa | 0 mm | - | 194 W/m² | - |
| 1787859616 | 31.11° C | 79% | 1014.7 hPa | 0 mm | - | 200 W/m² | - |
| 1787859314 | 30.56° C | 78% | 1014.3 hPa | 0 mm | - | 307 W/m² | - |
| 1787859011 | 30.56° C | 76% | 1014.7 hPa | 0 mm | - | 432 W/m² | - |
| 1787858707 | 31.11° C | 75% | 1014.8 hPa | 0 mm | - | 602 W/m² | - |
| 1787858401 | 30.56° C | 75% | 1014.9 hPa | 0 mm | - | 633 W/m² | - |
| 1787858096 | 30.56° C | 76% | 1014.9 hPa | 0 mm | - | 660 W/m² | - |
| 1787857791 | 31.11° C | 75% | 1014.9 hPa | 0 mm | - | 559 W/m² | - |
| 1787857487 | 31.11° C | 77% | 1015 hPa | 0 mm | - | 563 W/m² | - |
| 1787857185 | 30° C | 79% | 1014.8 hPa | 0 mm | - | 591 W/m² | - |
| 1787856880 | 30° C | 81% | 1014.7 hPa | 0 mm | - | 553 W/m² | - |
| 1787856580 | 30° C | 83% | 1014.8 hPa | 0 mm | - | 554 W/m² | - |
| 1787856275 | 29.44° C | 84% | 1014.9 hPa | 0 mm | - | 512 W/m² | - |
| 1787855971 | 29.44° C | 83% | 1015.2 hPa | 0 mm | - | 655 W/m² | - |
| 1787855670 | 28.89° C | 85% | 1014.9 hPa | 0 mm | - | 598 W/m² | - |
| 1787855365 | 28.89° C | 87% | 1015 hPa | 0 mm | - | 291 W/m² | - |
| 1787855061 | 28.33° C | 88% | 1015.2 hPa | 0 mm | - | 422 W/m² | - |
| 1787854756 | 27.78° C | 88% | 1015.3 hPa | 0 mm | - | 158 W/m² | - |
| 1787854455 | 28.33° C | 88% | 1015.4 hPa | 0 mm | - | 156 W/m² | - |
| 1787854150 | 28.33° C | 87% | 1015.6 hPa | 0 mm | - | 154 W/m² | - |
* Rain latest hour (hover to see other rain measurements)
** Current wind speed in m/s (hover to see current wind gust speed)